Weather History for KIJX - December, 2013

Change the Weather History Date:

Wednesday, December 4, 2013

  Actual Average (KSPI) Record (KSPI)
Temperature  
Mean Temperature 46 °F 34 °F  
Max Temperature 59 °F 42 °F 72 °F (1998)
Min Temperature 33 °F 26 °F 0 °F (1893)
Degree Days  
Heating Degree Days 18 31  
Month to date heating degree days 121  
Since 1 July heating degree days 1189  
Cooling Degree Days 0 0  
Month to date cooling degree days 0  
Year to date cooling degree days 1122  
Moisture  
Dew Point 47 °F    
Average Humidity 90    
Maximum Humidity 99    
Minimum Humidity 72    
Precipitation  
Precipitation 0.00 in 0.09 in 1.54 in (1973)
Month to date precipitation 0.38  
Year to date precipitation 35.29  
Snow  
Snow 0.00 in 0.20 in 2.70 in (1908)
Month to date snowfall 0.5  
Since 1 July snowfall 1.1  
Snow Depth -    
Sea Level Pressure  
Sea Level Pressure 29.66 in    
Wind  
Wind Speed 8 mph (South)    
Max Wind Speed 17 mph    
Max Gust Speed 26 mph    
Visibility 5 miles    
Events Fog    
T = Trace of Precipitation, MM = Missing Value Source: NWS Daily Summary

Daily Weather History Graph

Daily Weather History Graph

Search for Another Location

Airport or City:

Trip Planner

Search our weather history database for the weather conditions in past years. The results will help you decide how hot, cold, wet, or windy it might be!

Date:

Astronomy

Dec. 04, 2013 Rise Set
Actual Time 7:06 AM CST 4:36 PM CST
Civil Twilight 6:36 AM CST 5:06 PM CST
Nautical Twilight 6:02 AM CST 5:40 PM CST
Astronomical Twilight 5:29 AM CST 6:12 PM CST
Moon 8:34 AM CST (12/4) 6:46 PM CST (12/4)
Length of Visible Light 10h 30m
Length of Day
9h 30m
Waxing Crescent, 4% of the Moon is Illuminated
Dec 4
Waxing Crescent
Dec 9
First Quarter
Dec 17
Full
Dec 25
Last Quarter
Jan 1
New

Hourly Weather History & Observations

Time (CST) Temp. Windchill Dew Point Humidity Pressure Visibility Wind Dir Wind Speed Gust Speed Precip Events Conditions
12:15 AM 45.3 °F 42.3 °F 44.4 °F 97% 29.69 in 2.0 mi SE 5.8 mph - N/A   Clear
12:35 AM 45.1 °F 42.0 °F 44.2 °F 97% 29.69 in 1.8 mi SE 5.8 mph - N/A   Mist
12:55 AM 44.8 °F 41.6 °F 44.1 °F 97% 29.69 in 1.0 mi SE 5.8 mph - N/A   Mist
1:15 AM 45.0 °F 42.6 °F 44.4 °F 98% 29.68 in 0.5 mi SE 4.6 mph - N/A Fog Fog
1:35 AM 43.7 °F 42.1 °F 43.2 °F 98% 29.68 in 0.2 mi ESE 3.5 mph - N/A Fog Fog
1:55 AM 47.3 °F - 46.9 °F 99% 29.69 in 0.5 mi SSE 5.8 mph - N/A Fog Fog
2:15 AM 48.2 °F - 47.8 °F 99% 29.68 in 1.8 mi SSE 6.9 mph - N/A   Overcast
2:35 AM 48.6 °F - 48.2 °F 99% 29.68 in 2.0 mi SSE 4.6 mph - N/A   Overcast
2:55 AM 48.6 °F - 48.2 °F 99% 29.68 in 1.8 mi SE 5.8 mph - N/A   Overcast
3:15 AM 48.4 °F - 48.2 °F 99% 29.67 in 1.2 mi SE 3.5 mph - N/A   Overcast
3:35 AM 48.2 °F - 47.7 °F 98% 29.67 in 1.0 mi ESE 4.6 mph - N/A   Overcast
3:55 AM 47.7 °F - 47.3 °F 99% 29.67 in 1.2 mi ESE 5.8 mph - N/A   Overcast
4:15 AM 46.8 °F - 46.4 °F 99% 29.66 in 1.2 mi ESE 5.8 mph - N/A   Overcast
4:35 AM 46.6 °F - 46.4 °F 99% 29.66 in 1.2 mi ESE 4.6 mph - N/A   Overcast
4:55 AM 46.8 °F - 46.4 °F 99% 29.67 in 1.2 mi SE 3.5 mph - N/A   Overcast
5:15 AM 46.9 °F - 46.6 °F 99% 29.66 in 1.0 mi ESE 3.5 mph - N/A   Overcast
5:35 AM 47.3 °F - 46.9 °F 99% 29.65 in 0.8 mi ESE 5.8 mph - N/A   Overcast
5:55 AM 47.7 °F - 47.3 °F 99% 29.64 in 1.0 mi ESE 8.1 mph - N/A   Overcast
6:15 AM 48.7 °F - 48.4 °F 99% 29.65 in 1.5 mi SE 8.1 mph - N/A   Overcast
6:35 AM 49.1 °F - 48.6 °F 98% 29.64 in 2.0 mi SE 8.1 mph - N/A   Overcast
6:55 AM 49.1 °F - 48.6 °F 98% 29.65 in 2.5 mi SE 9.2 mph - N/A   Overcast
7:15 AM 49.5 °F - 49.1 °F 99% 29.65 in 2.5 mi SE 6.9 mph - N/A   Overcast
7:35 AM 49.6 °F - 49.3 °F 99% 29.65 in 1.8 mi SE 5.8 mph - N/A   Overcast
7:55 AM 49.6 °F - 49.3 °F 99% 29.64 in 1.2 mi ESE 8.1 mph - N/A   Mostly Cloudy
8:15 AM 50.0 °F - 49.5 °F 98% 29.63 in 2.0 mi SE 10.4 mph - N/A   Overcast
8:35 AM 50.2 °F - 50.0 °F 99% 29.64 in 1.5 mi SE 8.1 mph - N/A   Overcast
8:55 AM 50.5 °F - 50.2 °F 99% 29.64 in 1.2 mi SE 6.9 mph - N/A   Overcast
9:15 AM 51.1 °F - 50.9 °F 99% 29.64 in 1.5 mi SE 6.9 mph - N/A   Overcast
9:35 AM 52.0 °F - 51.8 °F 99% 29.63 in 0.8 mi SE 10.4 mph - N/A   Overcast
9:55 AM 52.7 °F - 52.2 °F 98% 29.62 in 1.0 mi SE 12.7 mph - N/A   Overcast
10:15 AM 52.9 °F - 52.7 °F 99% 29.60 in 0.5 mi SE 10.4 mph - N/A Fog Fog
10:35 AM 53.6 °F - 53.2 °F 99% 29.60 in 1.8 mi SE 12.7 mph - N/A   Overcast
10:55 AM 53.8 °F - 53.6 °F 99% 29.60 in 1.8 mi SSE 10.4 mph - N/A   Overcast
11:15 AM 53.8 °F - 53.6 °F 99% 29.58 in 1.0 mi SSE 9.2 mph - N/A   Overcast
11:35 AM 53.8 °F - 53.6 °F 99% 29.58 in 1.0 mi South 10.4 mph - N/A   Overcast
11:55 AM 54.3 °F - 53.8 °F 98% 29.56 in 1.0 mi South 11.5 mph 17.3 mph N/A   Overcast
12:15 PM 54.5 °F - 54.0 °F 98% 29.55 in 3.0 mi South 12.7 mph - N/A   Overcast
12:35 PM 55.0 °F - 54.5 °F 98% 29.53 in 5.0 mi South 10.4 mph 18.4 mph N/A   Overcast
12:55 PM 55.4 °F - 53.6 °F 94% 29.52 in 5.0 mi South 13.8 mph - N/A   Mostly Cloudy
1:15 PM 56.1 °F - 53.2 °F 90% 29.50 in 5.0 mi South 15.0 mph - N/A   Mostly Cloudy
1:35 PM 56.7 °F - 52.9 °F 87% 29.51 in 5.0 mi SSW 13.8 mph 19.6 mph N/A   Mostly Cloudy
1:55 PM 57.4 °F - 53.2 °F 86% 29.52 in 7.0 mi SSW 12.7 mph 18.4 mph N/A   Overcast
2:15 PM 58.1 °F - 53.6 °F 85% 29.53 in 7.0 mi SSW 9.2 mph - N/A   Overcast
2:35 PM 58.5 °F - 53.6 °F 84% 29.53 in 7.0 mi SSW 6.9 mph - N/A   Mostly Cloudy
2:55 PM 59.0 °F - 53.6 °F 82% 29.54 in 7.0 mi SSW 8.1 mph - N/A   Mostly Cloudy
3:15 PM 59.4 °F - 53.8 °F 82% 29.54 in 7.0 mi SSW 4.6 mph - N/A   Mostly Cloudy
3:35 PM 59.9 °F - 53.8 °F 80% 29.54 in 10.0 mi South 3.5 mph - N/A   Scattered Clouds
3:55 PM 59.0 °F - 53.4 °F 82% 29.56 in 10.0 mi SW 5.8 mph - N/A   Clear
4:15 PM 57.7 °F - 52.9 °F 84% 29.57 in 10.0 mi SW 4.6 mph - N/A   Clear
4:35 PM 56.5 °F - 52.2 °F 85% 29.57 in 10.0 mi SSW 6.9 mph - N/A   Clear
4:55 PM 57.4 °F - 50.9 °F 79% 29.60 in 10.0 mi WSW 15.0 mph - N/A   Clear
5:15 PM 56.3 °F - 47.7 °F 73% 29.62 in 10.0 mi West 12.7 mph 20.7 mph N/A   Mostly Cloudy
5:35 PM 55.6 °F - 46.8 °F 72% 29.64 in 10.0 mi WSW 13.8 mph 18.4 mph N/A   Overcast
5:55 PM 55.0 °F - 46.0 °F 72% 29.65 in 10.0 mi WSW 13.8 mph 18.4 mph N/A   Overcast
6:15 PM 53.8 °F - 45.5 °F 74% 29.66 in 10.0 mi WSW 12.7 mph 16.1 mph N/A   Scattered Clouds
6:35 PM 52.9 °F - 45.7 °F 77% 29.68 in 10.0 mi West 15.0 mph 19.6 mph N/A   Clear
6:55 PM 50.5 °F - 45.0 °F 81% 29.70 in 10.0 mi WSW 12.7 mph 19.6 mph N/A   Clear
7:15 PM 49.5 °F - 44.2 °F 82% 29.70 in 7.0 mi WSW 16.1 mph 21.9 mph N/A   Mostly Cloudy
7:35 PM 46.9 °F - 42.3 °F 84% 29.70 in 7.0 mi West 17.3 mph 26.5 mph N/A   Overcast
7:55 PM 45.7 °F 39.1 °F 39.9 °F 80% 29.73 in 10.0 mi West 15.0 mph - N/A   Mostly Cloudy
8:15 PM 45.0 °F 38.2 °F 39.6 °F 81% 29.74 in 10.0 mi West 15.0 mph 20.7 mph N/A   Overcast
8:35 PM 44.4 °F 38.2 °F 38.7 °F 80% 29.76 in 10.0 mi West 12.7 mph 21.9 mph N/A   Overcast
8:55 PM 42.8 °F 35.4 °F 37.2 °F 81% 29.77 in 10.0 mi WSW 15.0 mph 25.3 mph N/A   Overcast
9:15 PM 41.5 °F 34.6 °F 36.0 °F 81% 29.80 in 10.0 mi West 12.7 mph 23.0 mph N/A   Overcast
9:35 PM 40.1 °F 32.0 °F 34.5 °F 80% 29.81 in 10.0 mi West 15.0 mph 23.0 mph N/A   Overcast
9:55 PM 39.2 °F 30.2 °F 33.4 °F 80% 29.82 in 10.0 mi West 17.3 mph 25.3 mph N/A   Overcast
10:15 PM 38.5 °F 30.3 °F 33.3 °F 81% 29.82 in 10.0 mi West 13.8 mph 18.4 mph N/A   Overcast
10:35 PM 37.6 °F 28.4 °F 32.2 °F 81% 29.83 in 10.0 mi West 16.1 mph 21.9 mph N/A   Overcast
10:55 PM 36.5 °F 27.0 °F 31.3 °F 81% 29.85 in 10.0 mi West 16.1 mph 21.9 mph N/A   Overcast
11:15 PM 35.6 °F 26.2 °F 30.4 °F 81% 29.85 in 10.0 mi West 15.0 mph 21.9 mph N/A   Overcast
11:35 PM 34.3 °F 24.2 °F 29.8 °F 84% 29.86 in 10.0 mi West 16.1 mph 21.9 mph N/A   Overcast
11:55 PM 33.8 °F 23.2 °F 29.3 °F 84% 29.87 in 10.0 mi West 17.3 mph 21.9 mph N/A   Overcast